{"data":{"norad_id":19751,"intl_designator":"1989-001C","name":"COSMOS 1989 (ETALON 1)","alt_names":[],"object_type":"PAYLOAD","status":"ACTIVE","operator":null,"country":"CIS","launch_date":"1989-01-10","launch_site_code":"TYMSC","launch_vehicle":null,"mission":null,"orbit_class":"UNKNOWN","rcs_meters":1.2589,"size_class":null,"mass_kg":null,"dimensions":null,"purposes":["science"],"wikipedia_slug":null,"has_3d_model":false,"image_url":null,"decayed_at":null,"tle_current":{"epoch":"2026-09-20T05:21:27.681984Z","epoch_age_seconds":36113,"freshness":"FRESH","line1":"1 19751U 89001C   26263.22323706  .00000034  00000+0  00000+0 0  9990","line2":"2 19751  65.0062  68.9487 0023421 217.3889 314.2906  2.13156097293391","mean_motion":2.13156097,"eccentricity":0.0023421,"inclination_deg":65.0062,"raan_deg":68.9487,"arg_perigee_deg":217.3889,"mean_anomaly_deg":314.2906,"bstar":0,"rev_number":29339,"period_min":675.5612531224,"perigee_km":19065.839212617,"apogee_km":19185.30368373,"semimajor_km":25503.708448173,"source":"CELESTRAK","updated_at":"2026-09-20T09:00:47.280941Z"}}}